Spokane, WA
on Thursday, January 10, 2013

Thursday
Previous Day Next Day
Daily Summary
 ActualAverageRecord
Temperature
Mean Temperature °F 29°F  
Max Temperature 32°F 34°F 50°F (2006)
Min Temperature 25°F 24°F -11°F (1974)
Degree Days
Heating Degree Days 37 36  
Month to date heating degree days 385 370  
Since 1 July heating degree days 2810 3204  
Cooling Degree Days 0 0  
Month to date cooling degree days 0 0  
Year to date cooling degree days 0 0  
Moisture
Dew Point 25°F   
Average Humidity 92    
Maximum Humidity 100    
Minimum Humidity 84    
Precipitation
Precipitation 0.11 in 0.06 in 0.94 in (2006)
Month to date precipitation 0.97 0.64  
Year to date precipitation 0.97 0.64  
Snow
Snow 1.50 in 0.50 in 5.80 in (1979)
Month to date snowfall 10.8 4.7  
Since 1 July snowfall 34.8 26.8  
Snow Depth T in   
Wind
Wind Speed 7 mph   
Max Wind Speed 16 mph   
Max Gust Speed 20 mph   
Visibility 6 miles   
Events Snow   

Key: T is trace of precipitation, MM is missing value
Source: NWS Daily Summary
Time(PST)TemperatureDew PointHumidity Pressure Visibility Wind DirectionWind SpeedGust SpeedPrecipitationEvents Conditions
12:53 AM 30.9°F 28.0°F 89% 29.78 in 10.0 miles SSW 11.5 mph - N/A   Overcast
1:53 AM 30.2°F 26.6°F 86% 29.75 in 10.0 miles South 11.5 mph - N/A   Overcast
2:53 AM 30.0°F 27.0°F 88% 29.80 in 10.0 miles SSW 15.0 mph - N/A   Mostly Cloudy
3:53 AM 28.0°F 26.6°F 94% 29.80 in 10.0 miles South 10.4 mph - N/A   Mostly Cloudy
4:53 AM 27.0°F 25.0°F 92% 29.80 in 10.0 miles South 9.2 mph - N/A   Scattered Clouds
5:53 AM 26.1°F 23.0°F 88% 29.82 in 10.0 miles SSW 10.4 mph - N/A   Mostly Cloudy
6:53 AM 26.1°F 23.0°F 88% 29.83 in 10.0 miles SSW 4.6 mph - N/A   Mostly Cloudy
7:53 AM 25.0°F 23.0°F 92% 29.85 in 10.0 miles SSW 3.5 mph - N/A   Mostly Cloudy
8:53 AM 25.0°F 23.0°F 92% 29.87 in 10.0 miles South 5.8 mph - N/A   Mostly Cloudy
9:53 AM 26.1°F 23.0°F 88% 29.86 in 10.0 miles South 4.6 mph - N/A   Overcast
10:53 AM 27.0°F 23.0°F 85% 29.85 in 10.0 miles Calm Calm - N/A   Overcast
11:53 AM 28.0°F 24.1°F 85% 29.84 in 9.0 miles West 4.6 mph - 0.00 in Snow Light Snow
12:53 PM 28.0°F 25.0°F 88% 29.84 in 7.0 miles SSW 4.6 mph - 0.00 in Snow Light Snow
1:53 PM 28.9°F 26.1°F 89% 29.84 in 10.0 miles Calm Calm - 0.00 in   Overcast
2:53 PM 30.0°F 26.1°F 85% 29.85 in 10.0 miles Calm Calm - N/A   Mostly Cloudy
3:20 PM 30.2°F 26.6°F 86% 29.79 in 10.0 miles SSW 4.6 mph - N/A   Mostly Cloudy
3:53 PM 30.0°F 26.1°F 85% 29.86 in 10.0 miles SSW 3.5 mph - 0.00 in Snow Light Snow
4:53 PM 30.0°F 25.0°F 82% 29.86 in 10.0 miles West 4.6 mph - 0.00 in   Overcast
5:44 PM 30.2°F 24.8°F 80% 29.80 in 2.0 miles NW 11.5 mph - 0.00 in Snow Light Snow
5:53 PM 29.5°F 25.0°F 83% 29.87 in 2.0 miles NW 12.7 mph - 0.00 in Snow Light Snow
5:57 PM 28.4°F 24.8°F 86% 29.80 in 1.0 miles NW 12.7 mph - 0.01 in Snow Light Snow
6:17 PM 26.6°F 24.8°F 93% 29.80 in 1.0 miles NNW 12.7 mph - 0.01 in Snow Light Snow
6:53 PM 26.1°F 25.0°F 96% 29.88 in 1.0 miles NNW 10.4 mph - 0.02 in Snow Light Snow
7:53 PM 26.1°F 24.1°F 92% 29.88 in 1.0 miles NNW 12.7 mph - 0.03 in Snow Light Snow
8:53 PM 24.8°F 24.8°F 100% 29.80 in 1.0 miles NNW 11.5 mph - N/A Snow Light Snow
9:05 PM 24.8°F 24.8°F 100% 29.80 in 1.0 miles NNW 10.4 mph - 0.00 in Snow Light Snow
9:27 PM 24.8°F 24.8°F 100% 29.81 in 2.0 miles North 9.2 mph - 0.00 in Snow Light Snow
9:53 PM 25.0°F 24.1°F 96% 29.89 in 1.5 miles NNW 9.2 mph - 0.01 in Snow Light Snow
10:53 PM 25.0°F 24.4°F 98% 29.90 in 1.0 miles North 6.9 mph - 0.02 in Snow Light Snow
11:53 PM 25.0°F 24.4°F 98% 29.91 in 1.0 miles North 6.9 mph - 0.01 in Snow Light Snow
Moon Phase
Jan. 10 Jan. 11 Jan. 18 Jan. 26 Feb. 03
Sunrise:07:36 AM (PST) Moon Rise:06:19 AM (PST)1/10
Sunset:04:19 PM (PST) Moon Set:03:34 PM (PST)1/10

Copyright © 2014 The Weather Underground, Inc.